Time,TemperatureF,DewpointF,PressureIn,WindDirection,WindDirectionDegrees,WindSpeedMPH,WindSpeedGustMPH,Humidity,HourlyPrecipIn,Conditions,Clouds,dailyrainin,SoftwareType,DateUTC
2013-07-12 00:01:00,68.1,65.7,21.48,NNW,346,0.0,0.0,92,0.00,CLR,,0.00,WeatherDisplay:10.37,2013-07-12 04:01:00,
2013-07-12 00:06:00,68.2,65.8,21.48,NNW,346,0.0,0.0,92,0.00,CLR,,0.00,WeatherDisplay:10.37,2013-07-12 04:06:00,
2013-07-12 00:11:00,68.3,65.9,21.48,NNW,346,0.0,0.0,92,0.00,CLR,,0.00,WeatherDisplay:10.37,2013-07-12 04:11:00,
2013-07-12 00:16:00,68.3,65.9,21.48,NNW,346,1.2,0.0,92,0.00,CLR,,0.00,WeatherDisplay:10.37,2013-07-12 04:16:00,
2013-07-12 00:21:00,68.3,65.6,21.48,NNW,346,0.0,0.0,91,0.00,CLR,,0.00,WeatherDisplay:10.37,2013-07-12 04:21:00,
2013-07-12 00:26:00,68.2,65.5,21.48,NNW,346,0.0,0.0,91,0.00,CLR,,0.00,WeatherDisplay:10.37,2013-07-12 04:26:00,
2013-07-12 00:31:00,68.1,65.1,21.48,NNW,346,0.0,0.0,90,0.00,CLR,,0.00,WeatherDisplay:10.37,2013-07-12 04:31:00,
2013-07-12 00:36:00,68.1,65.1,21.48,NNW,346,0.0,0.0,90,0.00,CLR,,0.00,WeatherDisplay:10.37,2013-07-12 04:36:00,
2013-07-12 00:41:00,68.1,64.7,21.48,NE,47,0.0,0.0,89,0.00,CLR,,0.00,WeatherDisplay:10.37,2013-07-12 04:41:00,
2013-07-12 00:46:00,68.2,64.8,21.48,NE,48,2.3,2.3,89,0.00,CLR,,0.00,WeatherDisplay:10.37,2013-07-12 04:46:00,
2013-07-12 00:51:00,68.2,64.8,21.48,NE,49,0.0,0.0,89,0.00,CLR,,0.00,WeatherDisplay:10.37,2013-07-12 04:51:00,
2013-07-12 00:56:00,68.1,64.4,21.48,NE,48,0.0,0.0,88,0.00,CLR,,0.00,WeatherDisplay:10.37,2013-07-12 04:56:00,
2013-07-12 01:01:00,68.0,64.3,21.48,NE,49,0.0,0.0,88,0.00,CLR,,0.00,WeatherDisplay:10.37,2013-07-12 05:01:00,
2013-07-12 01:06:00,67.9,64.2,21.48,NE,44,0.0,0.0,88,0.00,CLR,,0.00,WeatherDisplay:10.37,2013-07-12 05:06:00,
2013-07-12 01:11:00,67.9,64.2,21.48,NE,44,0.0,0.0,88,0.00,CLR,,0.00,WeatherDisplay:10.37,2013-07-12 05:11:00,
2013-07-12 01:16:00,67.9,64.2,21.48,NE,44,0.0,0.0,88,0.00,CLR,,0.00,WeatherDisplay:10.37,2013-07-12 05:16:00,
2013-07-12 01:21:00,67.8,64.4,21.48,NE,44,0.0,0.0,89,0.00,CLR,,0.00,WeatherDisplay:10.37,2013-07-12 05:21:00,
2013-07-12 01:26:00,67.6,64.2,21.48,NE,44,0.0,0.0,89,0.00,CLR,,0.00,WeatherDisplay:10.37,2013-07-12 05:26:00,
2013-07-12 01:31:00,67.4,64.4,21.48,NE,44,0.0,0.0,90,0.00,CLR,,0.00,WeatherDisplay:10.37,2013-07-12 05:31:00,
2013-07-12 01:36:00,67.2,64.2,21.48,NE,44,0.0,0.0,90,0.00,CLR,,0.00,WeatherDisplay:10.37,2013-07-12 05:36:00,
2013-07-12 01:41:00,67.0,64.3,21.48,NE,44,0.0,0.0,91,0.00,CLR,,0.00,WeatherDisplay:10.37,2013-07-12 05:41:00,
2013-07-12 01:46:00,66.8,64.1,21.48,NE,44,0.0,0.0,91,0.00,CLR,,0.00,WeatherDisplay:10.37,2013-07-12 05:46:00,
2013-07-12 01:51:00,66.5,63.8,21.48,NE,44,0.0,0.0,91,0.00,CLR,,0.00,WeatherDisplay:10.37,2013-07-12 05:51:00,
2013-07-12 01:56:00,66.3,63.6,21.48,NE,44,0.0,0.0,91,0.00,CLR,,0.00,WeatherDisplay:10.37,2013-07-12 05:56:00,
2013-07-12 02:02:00,66.2,63.5,21.48,NE,44,0.0,0.0,91,0.00,CLR,,0.00,WeatherDisplay:10.37,2013-07-12 06:02:00,
2013-07-12 02:07:00,66.0,63.6,21.48,NE,44,0.0,0.0,92,0.00,CLR,,0.00,WeatherDisplay:10.37,2013-07-12 06:07:00,
2013-07-12 02:12:00,65.8,63.4,21.48,NE,44,0.0,0.0,92,0.00,CLR,,0.00,WeatherDisplay:10.37,2013-07-12 06:12:00,
2013-07-12 02:17:00,65.5,63.1,21.48,NE,44,0.0,0.0,92,0.00,CLR,,0.00,WeatherDisplay:10.37,2013-07-12 06:17:00,
2013-07-12 02:22:00,65.3,63.2,21.48,NE,44,0.0,0.0,93,0.00,CLR,,0.00,WeatherDisplay:10.37,2013-07-12 06:22:00,
2013-07-12 02:27:00,65.1,63.0,21.48,NE,44,0.0,0.0,93,0.00,CLR,,0.00,WeatherDisplay:10.37,2013-07-12 06:27:00,
2013-07-12 02:32:00,64.9,62.8,21.48,NE,44,0.0,0.0,93,0.00,CLR,,0.00,WeatherDisplay:10.37,2013-07-12 06:32:00,
2013-07-12 02:37:00,64.7,62.9,21.48,NE,44,1.2,0.0,94,0.00,CLR,,0.00,WeatherDisplay:10.37,2013-07-12 06:37:00,
2013-07-12 02:42:00,64.6,62.8,21.48,NE,44,0.0,0.0,94,0.00,CLR,,0.00,WeatherDisplay:10.37,2013-07-12 06:42:00,
2013-07-12 02:47:00,64.5,62.7,21.48,NE,44,0.0,0.0,94,0.00,CLR,,0.00,WeatherDisplay:10.37,2013-07-12 06:47:00,
2013-07-12 02:52:00,64.3,62.5,21.48,NE,44,0.0,0.0,94,0.00,CLR,,0.00,WeatherDisplay:10.37,2013-07-12 06:52:00,
2013-07-12 02:57:00,64.2,62.4,21.48,NE,44,0.0,0.0,94,0.00,CLR,,0.00,WeatherDisplay:10.37,2013-07-12 06:57:00,
2013-07-12 03:02:00,64.1,62.6,21.48,NE,44,0.0,0.0,95,0.00,CLR,,0.00,WeatherDisplay:10.37,2013-07-12 07:02:00,
2013-07-12 03:07:00,64.0,62.2,21.48,NE,44,0.0,0.0,94,0.00,CLR,,0.00,WeatherDisplay:10.37,2013-07-12 07:07:00,
2013-07-12 03:12:00,63.9,62.4,21.48,NE,44,0.0,0.0,95,0.00,CLR,,0.00,WeatherDisplay:10.37,2013-07-12 07:12:00,
2013-07-12 03:17:00,63.8,62.3,21.48,NE,44,0.0,0.0,95,0.00,CLR,,0.00,WeatherDisplay:10.37,2013-07-12 07:17:00,
2013-07-12 03:22:00,63.7,62.2,21.48,NE,44,0.0,0.0,95,0.00,CLR,,0.00,WeatherDisplay:10.37,2013-07-12 07:22:00,
2013-07-12 03:27:00,63.6,62.1,21.48,NE,44,0.0,0.0,95,0.00,CLR,,0.00,WeatherDisplay:10.37,2013-07-12 07:27:00,
2013-07-12 03:33:00,63.5,62.0,21.48,NE,44,0.0,0.0,95,0.00,CLR,,0.00,WeatherDisplay:10.37,2013-07-12 07:33:00,
2013-07-12 03:38:00,63.5,62.0,21.48,NE,44,0.0,0.0,95,0.00,CLR,,0.00,WeatherDisplay:10.37,2013-07-12 07:38:00,
2013-07-12 03:43:00,63.4,61.9,21.48,NE,44,0.0,0.0,95,0.00,CLR,,0.00,WeatherDisplay:10.37,2013-07-12 07:43:00,
2013-07-12 03:48:00,63.5,62.0,21.48,NE,44,0.0,0.0,95,0.00,CLR,,0.00,WeatherDisplay:10.37,2013-07-12 07:48:00,
2013-07-12 03:53:00,63.5,62.0,21.48,NE,44,0.0,0.0,95,0.00,CLR,,0.00,WeatherDisplay:10.37,2013-07-12 07:53:00,
2013-07-12 03:58:00,63.5,62.0,21.48,NE,44,0.0,0.0,95,0.00,CLR,,0.00,WeatherDisplay:10.37,2013-07-12 07:58:00,
2013-07-12 04:03:00,63.5,62.0,21.48,NE,44,0.0,0.0,95,0.00,CLR,,0.00,WeatherDisplay:10.37,2013-07-12 08:03:00,
2013-07-12 04:08:00,63.4,61.9,21.48,NE,36,0.0,0.0,95,0.00,CLR,,0.00,WeatherDisplay:10.37,2013-07-12 08:08:00,
2013-07-12 04:13:00,63.3,61.8,21.48,NE,34,0.0,0.0,95,0.00,CLR,,0.00,WeatherDisplay:10.37,2013-07-12 08:13:00,
2013-07-12 04:18:00,63.2,61.7,21.48,NE,35,0.0,0.0,95,0.00,CLR,,0.00,WeatherDisplay:10.37,2013-07-12 08:18:00,
2013-07-12 04:23:00,63.1,61.6,21.48,NE,35,0.0,0.0,95,0.00,CLR,,0.00,WeatherDisplay:10.37,2013-07-12 08:23:00,
2013-07-12 04:28:00,63.1,61.6,21.48,NE,34,0.0,0.0,95,0.00,CLR,,0.00,WeatherDisplay:10.37,2013-07-12 08:28:00,
2013-07-12 04:33:00,63.1,61.6,21.48,NE,35,0.0,0.0,95,0.00,CLR,,0.00,WeatherDisplay:10.37,2013-07-12 08:33:00,
2013-07-12 04:38:00,63.1,61.6,21.48,NE,35,0.0,0.0,95,0.00,CLR,,0.00,WeatherDisplay:10.37,2013-07-12 08:38:00,
2013-07-12 04:43:00,63.1,61.6,21.48,NE,35,1.2,0.0,95,0.00,CLR,,0.00,WeatherDisplay:10.37,2013-07-12 08:43:00,
2013-07-12 04:48:00,63.1,61.6,21.48,NE,35,0.0,0.0,95,0.00,CLR,,0.00,WeatherDisplay:10.37,2013-07-12 08:48:00,
2013-07-12 04:53:00,63.1,61.6,21.48,NE,35,0.0,0.0,95,0.00,CLR,,0.00,WeatherDisplay:10.37,2013-07-12 08:53:00,
2013-07-12 04:58:00,63.0,61.5,21.48,NE,34,0.0,0.0,95,0.00,CLR,,0.00,WeatherDisplay:10.37,2013-07-12 08:58:00,
2013-07-12 05:03:00,63.0,61.5,21.48,NE,35,0.0,0.0,95,0.00,CLR,,0.00,WeatherDisplay:10.37,2013-07-12 09:03:00,
2013-07-12 05:08:00,62.9,61.4,21.48,NE,34,0.0,0.0,95,0.00,CLR,,0.00,WeatherDisplay:10.37,2013-07-12 09:08:00,
2013-07-12 05:13:00,62.9,61.4,21.48,NE,35,0.0,0.0,95,0.00,CLR,,0.00,WeatherDisplay:10.37,2013-07-12 09:13:00,
2013-07-12 05:18:00,62.9,61.4,21.48,NE,35,0.0,0.0,95,0.00,CLR,,0.00,WeatherDisplay:10.37,2013-07-12 09:18:00,
2013-07-12 05:23:00,62.9,61.4,21.48,NE,49,1.2,0.0,95,0.00,CLR,,0.00,WeatherDisplay:10.37,2013-07-12 09:23:00,
2013-07-12 05:28:00,62.9,61.1,21.48,NE,36,0.0,0.0,94,0.00,CLR,,0.00,WeatherDisplay:10.37,2013-07-12 09:28:00,
2013-07-12 05:33:00,62.9,61.1,21.48,NNE,27,0.0,0.0,94,0.00,CLR,,0.00,WeatherDisplay:10.37,2013-07-12 09:33:00,
2013-07-12 05:38:00,63.0,60.9,21.48,ENE,59,0.0,0.0,93,0.00,CLR,,0.00,WeatherDisplay:10.37,2013-07-12 09:38:00,
2013-07-12 05:43:00,63.0,60.6,21.48,ENE,59,0.0,0.0,92,0.00,CLR,,0.00,WeatherDisplay:10.37,2013-07-12 09:43:00,
2013-07-12 05:48:00,63.0,60.6,21.48,WSW,244,0.0,0.0,92,0.00,CLR,,0.00,WeatherDisplay:10.37,2013-07-12 09:48:00,
2013-07-12 05:53:00,63.1,60.4,21.48,WNW,299,2.3,2.3,91,0.00,CLR,,0.00,WeatherDisplay:10.37,2013-07-12 09:53:00,
2013-07-12 05:58:00,63.1,60.4,21.48,ENE,57,0.0,0.4,91,0.00,CLR,,0.00,WeatherDisplay:10.37,2013-07-12 09:58:00,
2013-07-12 06:03:00,63.1,60.4,21.48,NNE,19,1.2,0.0,91,0.00,CLR,,0.00,WeatherDisplay:10.37,2013-07-12 10:03:00,
2013-07-12 06:08:00,63.1,60.4,21.48,NNW,342,0.0,0.0,91,0.00,CLR,,0.00,WeatherDisplay:10.37,2013-07-12 10:08:00,
2013-07-12 06:13:00,63.0,60.0,21.48,NE,39,0.0,0.0,90,0.00,CLR,,0.00,WeatherDisplay:10.37,2013-07-12 10:13:00,
2013-07-12 06:18:00,63.0,60.0,21.48,NE,38,0.0,0.0,90,0.00,CLR,,0.00,WeatherDisplay:10.37,2013-07-12 10:18:00,
2013-07-12 06:23:00,63.0,60.0,21.48,ENE,57,0.0,0.0,90,0.00,CLR,,0.00,WeatherDisplay:10.37,2013-07-12 10:23:00,
2013-07-12 06:28:00,63.0,60.3,21.48,NE,36,0.0,0.0,91,0.00,CLR,,0.00,WeatherDisplay:10.37,2013-07-12 10:28:00,
2013-07-12 06:33:00,62.9,59.9,21.48,NNE,17,2.0,2.0,90,0.00,CLR,,0.00,WeatherDisplay:10.37,2013-07-12 10:33:00,
2013-07-12 06:38:00,62.9,59.9,21.48,NE,46,0.0,0.1,90,0.00,CLR,,0.00,WeatherDisplay:10.37,2013-07-12 10:38:00,
2013-07-12 06:43:00,62.9,59.9,21.48,East,90,1.2,1.2,90,0.00,CLR,,0.00,WeatherDisplay:10.37,2013-07-12 10:43:00,
2013-07-12 06:48:00,63.0,60.0,21.48,NE,45,1.2,1.2,90,0.00,CLR,,0.00,WeatherDisplay:10.37,2013-07-12 10:48:00,
2013-07-12 06:53:00,63.0,60.0,21.48,North,355,0.0,0.0,90,0.00,CLR,,0.00,WeatherDisplay:10.37,2013-07-12 10:53:00,
2013-07-12 06:58:00,63.1,60.1,21.48,North,5,0.0,0.0,90,0.00,CLR,,0.00,WeatherDisplay:10.37,2013-07-12 10:58:00,
2013-07-12 07:03:00,63.1,59.8,21.48,North,360,0.0,0.0,89,0.00,CLR,,0.00,WeatherDisplay:10.37,2013-07-12 11:03:00,
2013-07-12 07:08:00,63.1,59.8,21.48,North,5,0.0,0.0,89,0.00,CLR,,0.00,WeatherDisplay:10.37,2013-07-12 11:08:00,
2013-07-12 07:13:00,63.1,59.8,21.48,NNE,28,0.0,0.4,89,0.00,CLR,,0.00,WeatherDisplay:10.37,2013-07-12 11:13:00,
2013-07-12 07:18:00,63.0,59.7,21.48,ENE,60,0.0,0.0,89,0.00,CLR,,0.00,WeatherDisplay:10.37,2013-07-12 11:18:00,
2013-07-12 07:23:00,63.0,60.0,21.48,East,86,0.0,0.0,90,0.00,CLR,,0.00,WeatherDisplay:10.37,2013-07-12 11:23:00,
2013-07-12 07:28:00,63.0,59.7,21.48,NW,317,0.0,0.0,89,0.00,CLR,,0.00,WeatherDisplay:10.37,2013-07-12 11:28:00,
2013-07-12 07:33:00,63.0,59.7,21.48,NW,304,1.0,1.0,89,0.00,CLR,,0.00,WeatherDisplay:10.37,2013-07-12 11:33:00,
2013-07-12 07:38:00,63.1,59.8,21.48,North,5,0.0,0.0,89,0.00,CLR,,0.00,WeatherDisplay:10.37,2013-07-12 11:38:00,
2013-07-12 07:43:00,63.2,59.9,21.48,NE,45,0.0,0.0,89,0.00,CLR,,0.00,WeatherDisplay:10.37,2013-07-12 11:43:00,
2013-07-12 07:48:00,63.4,60.1,21.48,NE,45,0.0,0.0,89,0.00,CLR,,0.00,WeatherDisplay:10.37,2013-07-12 11:48:00,
2013-07-12 07:53:00,63.6,60.0,21.48,North,360,0.0,0.0,88,0.00,CLR,,0.00,WeatherDisplay:10.37,2013-07-12 11:53:00,
2013-07-12 07:58:00,63.9,60.3,21.48,NNE,19,0.0,0.0,88,0.00,CLR,,0.00,WeatherDisplay:10.37,2013-07-12 11:58:00,
2013-07-12 08:03:00,64.1,60.5,21.48,North,5,1.2,0.0,88,0.00,CLR,,0.00,WeatherDisplay:10.37,2013-07-12 12:03:00,
2013-07-12 08:08:00,64.2,60.6,21.48,NNW,342,0.0,0.0,88,0.00,CLR,,0.00,WeatherDisplay:10.37,2013-07-12 12:08:00,
2013-07-12 08:13:00,64.2,60.6,21.48,North,349,0.0,0.0,88,0.00,CLR,,0.00,WeatherDisplay:10.37,2013-07-12 12:13:00,
2013-07-12 08:18:00,64.7,60.7,21.48,ESE,121,0.0,0.0,87,0.00,CLR,,0.00,WeatherDisplay:10.37,2013-07-12 12:18:00,
2013-07-12 08:24:00,64.9,60.9,21.48,NE,40,0.0,0.0,87,0.00,CLR,,0.00,WeatherDisplay:10.37,2013-07-12 12:24:00,
2013-07-12 08:29:00,65.3,61.3,21.48,NE,43,0.0,0.0,87,0.00,CLR,,0.00,WeatherDisplay:10.37,2013-07-12 12:29:00,
2013-07-12 08:34:00,65.7,61.4,21.48,East,80,0.0,0.0,86,0.00,CLR,,0.00,WeatherDisplay:10.37,2013-07-12 12:34:00,
2013-07-12 08:39:00,65.8,61.2,21.48,NW,314,2.3,2.3,85,0.00,CLR,,0.00,WeatherDisplay:10.37,2013-07-12 12:39:00,
2013-07-12 08:44:00,66.2,61.6,21.48,North,5,1.2,1.2,85,0.00,CLR,,0.00,WeatherDisplay:10.37,2013-07-12 12:44:00,
2013-07-12 08:49:00,66.1,61.5,21.48,NE,36,0.0,0.0,85,0.00,CLR,,0.00,WeatherDisplay:10.37,2013-07-12 12:49:00,
2013-07-12 08:54:00,66.2,61.6,21.48,South,176,1.2,0.0,85,0.00,CLR,,0.00,WeatherDisplay:10.37,2013-07-12 12:54:00,
2013-07-12 08:59:00,66.5,61.8,21.48,NNE,15,1.2,1.2,85,0.00,CLR,,0.00,WeatherDisplay:10.37,2013-07-12 12:59:00,
2013-07-12 09:04:00,66.8,61.8,21.48,NNW,339,0.0,0.0,84,0.00,CLR,,0.00,WeatherDisplay:10.37,2013-07-12 13:04:00,
2013-07-12 09:09:00,67.1,62.1,21.48,NNE,33,3.5,3.5,84,0.00,CLR,,0.00,WeatherDisplay:10.37,2013-07-12 13:09:00,
2013-07-12 09:14:00,67.5,62.5,21.48,NE,39,0.0,0.0,84,0.00,CLR,,0.00,WeatherDisplay:10.37,2013-07-12 13:14:00,
2013-07-12 09:19:00,68.4,63.0,21.48,NNE,18,3.5,3.5,83,0.00,CLR,,0.00,WeatherDisplay:10.37,2013-07-12 13:19:00,
2013-07-12 09:24:00,69.5,63.4,21.48,NE,49,0.0,0.0,81,0.00,CLR,,0.00,WeatherDisplay:10.37,2013-07-12 13:24:00,
2013-07-12 09:29:00,70.1,63.6,21.48,West,280,0.0,0.0,80,0.00,CLR,,0.00,WeatherDisplay:10.37,2013-07-12 13:29:00,
2013-07-12 09:34:00,70.3,63.8,21.48,ENE,67,0.0,0.0,80,0.00,CLR,,0.00,WeatherDisplay:10.37,2013-07-12 13:34:00,
2013-07-12 09:39:00,70.5,63.7,21.48,NNW,348,0.0,0.0,79,0.00,CLR,,0.00,WeatherDisplay:10.37,2013-07-12 13:39:00,
2013-07-12 09:44:00,70.6,64.1,21.48,SW,228,3.0,3.0,80,0.00,CLR,,0.00,WeatherDisplay:10.37,2013-07-12 13:44:00,
2013-07-12 09:49:00,70.4,63.6,21.48,NNE,15,3.5,3.5,79,0.00,CLR,,0.00,WeatherDisplay:10.37,2013-07-12 13:49:00,
2013-07-12 09:54:00,70.6,63.8,21.48,NE,51,4.6,4.6,79,0.00,CLR,,0.00,WeatherDisplay:10.37,2013-07-12 13:54:00,
2013-07-12 09:59:00,70.4,63.9,21.48,NNE,29,0.0,0.0,80,0.00,CLR,,0.00,WeatherDisplay:10.37,2013-07-12 13:59:00,
2013-07-12 10:04:00,70.1,63.6,21.48,NE,42,0.0,0.0,80,0.00,CLR,,0.00,WeatherDisplay:10.37,2013-07-12 14:04:00,
2013-07-12 10:09:00,70.6,64.1,21.48,NW,310,0.0,0.0,80,0.00,CLR,,0.00,WeatherDisplay:10.37,2013-07-12 14:09:00,
2013-07-12 10:14:00,70.9,63.7,21.48,NNW,338,0.0,0.0,78,0.00,CLR,,0.00,WeatherDisplay:10.37,2013-07-12 14:14:00,
2013-07-12 10:19:00,70.8,64.0,21.48,NE,38,0.0,0.0,79,0.00,CLR,,0.00,WeatherDisplay:10.37,2013-07-12 14:19:00,
2013-07-12 10:24:00,71.7,64.5,21.48,NNE,30,0.0,0.0,78,0.00,CLR,,0.00,WeatherDisplay:10.37,2013-07-12 14:24:00,
2013-07-12 10:29:00,72.3,64.3,21.48,NNW,336,6.9,6.9,76,0.00,CLR,,0.00,WeatherDisplay:10.37,2013-07-12 14:29:00,
2013-07-12 10:34:00,73.0,64.6,21.48,NE,45,8.1,8.1,75,0.00,CLR,,0.00,WeatherDisplay:10.37,2013-07-12 14:34:00,
2013-07-12 10:39:00,72.4,64.0,21.48,NE,47,3.5,3.5,75,0.00,CLR,,0.00,WeatherDisplay:10.37,2013-07-12 14:39:00,
2013-07-12 10:44:00,72.4,64.4,21.48,North,351,1.2,0.0,76,0.00,CLR,,0.00,WeatherDisplay:10.37,2013-07-12 14:44:00,
2013-07-12 10:49:00,72.2,63.8,21.48,NE,52,6.9,6.9,75,0.00,CLR,,0.00,WeatherDisplay:10.37,2013-07-12 14:49:00,
2013-07-12 10:54:00,73.1,65.1,21.48,North,9,0.0,0.0,76,0.00,CLR,,0.00,WeatherDisplay:10.37,2013-07-12 14:54:00,
2013-07-12 10:59:00,74.1,65.3,21.48,NNW,342,0.0,0.0,74,0.00,CLR,,0.00,WeatherDisplay:10.37,2013-07-12 14:59:00,
2013-07-12 11:04:00,75.6,66.3,21.48,SW,225,0.0,0.0,73,0.00,CLR,,0.00,WeatherDisplay:10.37,2013-07-12 15:04:00,
2013-07-12 11:09:00,76.6,66.9,21.48,ENE,62,3.5,3.5,72,0.00,CLR,,0.00,WeatherDisplay:10.37,2013-07-12 15:09:00,
2013-07-12 11:14:00,75.7,66.0,21.48,NNE,32,3.5,3.5,72,0.00,CLR,,0.00,WeatherDisplay:10.37,2013-07-12 15:14:00,
2013-07-12 11:19:00,76.2,66.5,21.48,NNE,21,3.5,0.0,72,0.00,CLR,,0.00,WeatherDisplay:10.37,2013-07-12 15:19:00,
2013-07-12 11:24:00,76.6,66.1,21.48,NNE,19,2.3,0.0,70,0.00,CLR,,0.00,WeatherDisplay:10.37,2013-07-12 15:24:00,
2013-07-12 11:29:00,76.7,66.2,21.48,NNE,16,8.1,8.1,70,0.00,CLR,,0.00,WeatherDisplay:10.37,2013-07-12 15:29:00,
2013-07-12 11:34:00,76.7,66.6,21.48,NNW,342,3.5,3.5,71,0.00,CLR,,0.00,WeatherDisplay:10.37,2013-07-12 15:34:00,
2013-07-12 11:39:00,76.6,66.5,21.48,NNW,343,0.0,0.0,71,0.00,CLR,,0.00,WeatherDisplay:10.37,2013-07-12 15:39:00,
2013-07-12 11:44:00,77.1,67.0,21.48,NE,40,0.0,0.0,71,0.00,CLR,,0.00,WeatherDisplay:10.37,2013-07-12 15:44:00,
2013-07-12 11:49:00,78.0,67.4,21.48,NE,55,1.2,0.0,70,0.00,CLR,,0.00,WeatherDisplay:10.37,2013-07-12 15:49:00,
2013-07-12 11:54:00,77.0,66.5,21.48,NNE,30,4.6,4.6,70,0.00,CLR,,0.00,WeatherDisplay:10.37,2013-07-12 15:54:00,
2013-07-12 11:59:00,76.6,66.9,21.48,ENE,66,0.0,0.0,72,0.00,CLR,,0.00,WeatherDisplay:10.37,2013-07-12 15:59:00,
2013-07-12 12:04:00,77.3,68.0,21.48,ENE,61,0.0,0.0,73,0.00,CLR,,0.00,WeatherDisplay:10.37,2013-07-12 16:04:00,
2013-07-12 12:09:00,79.1,67.2,21.48,NNE,20,5.0,5.0,67,0.00,CLR,,0.00,WeatherDisplay:10.37,2013-07-12 16:09:00,
2013-07-12 12:14:00,78.6,66.3,21.48,ENE,78,6.9,6.9,66,0.00,CLR,,0.00,WeatherDisplay:10.37,2013-07-12 16:14:00,
2013-07-12 12:19:00,78.3,66.9,21.48,NE,48,1.2,0.0,68,0.00,CLR,,0.00,WeatherDisplay:10.37,2013-07-12 16:19:00,
2013-07-12 12:24:00,78.4,65.7,21.48,NE,50,2.3,0.0,65,0.00,CLR,,0.00,WeatherDisplay:10.37,2013-07-12 16:24:00,
2013-07-12 12:29:00,79.1,66.3,21.48,North,355,4.6,4.6,65,0.00,CLR,,0.00,WeatherDisplay:10.37,2013-07-12 16:29:00,
2013-07-12 12:34:00,79.4,66.6,21.83,NNE,28,0.0,0.0,65,0.00,CLR,,0.00,WeatherDisplay:10.37,2013-07-12 16:34:00,
2013-07-12 12:39:00,78.9,66.1,21.83,NNW,340,1.2,0.0,65,0.00,CLR,,0.00,WeatherDisplay:10.37,2013-07-12 16:39:00,
2013-07-12 12:44:00,79.1,66.3,21.83,NE,37,1.2,0.0,65,0.00,CLR,,0.00,WeatherDisplay:10.37,2013-07-12 16:44:00,
2013-07-12 12:49:00,79.4,66.2,21.83,ENE,75,6.9,0.0,64,0.00,CLR,,0.00,WeatherDisplay:10.37,2013-07-12 16:49:00,
2013-07-12 12:54:00,79.1,65.9,21.83,NE,48,0.0,0.6,64,0.00,CLR,,0.00,WeatherDisplay:10.37,2013-07-12 16:54:00,
2013-07-12 12:59:00,78.4,66.1,21.83,NNE,23,0.0,0.0,66,0.00,CLR,,0.00,WeatherDisplay:10.37,2013-07-12 16:59:00,
2013-07-12 13:05:00,79.0,66.7,21.83,North,9,0.0,0.0,66,0.00,CLR,,0.00,WeatherDisplay:10.37,2013-07-12 17:05:00,
2013-07-12 13:10:00,78.7,66.4,21.83,NE,56,0.0,0.0,66,0.00,CLR,,0.00,WeatherDisplay:10.37,2013-07-12 17:10:00,
2013-07-12 13:15:00,79.8,67.9,21.83,ENE,62,0.0,0.0,67,0.00,CLR,,0.00,WeatherDisplay:10.37,2013-07-12 17:15:00,
2013-07-12 13:20:00,80.3,67.5,21.83,WSW,244,3.5,3.5,65,0.00,CLR,,0.00,WeatherDisplay:10.37,2013-07-12 17:20:00,
2013-07-12 13:25:00,80.0,66.7,21.83,ENE,63,6.9,6.9,64,0.00,CLR,,0.00,WeatherDisplay:10.37,2013-07-12 17:25:00,
2013-07-12 13:30:00,79.3,67.0,21.83,NNE,13,0.0,0.0,66,0.00,CLR,,0.00,WeatherDisplay:10.37,2013-07-12 17:30:00,
2013-07-12 13:35:00,79.0,67.1,21.83,NNW,342,1.2,0.0,67,0.00,CLR,,0.00,WeatherDisplay:10.37,2013-07-12 17:35:00,
2013-07-12 13:41:00,78.2,66.8,21.83,NE,45,3.5,3.5,68,0.00,CLR,,0.00,WeatherDisplay:10.37,2013-07-12 17:41:00,
2013-07-12 13:46:00,78.0,67.4,21.83,WNW,285,0.0,0.0,70,0.00,CLR,,0.00,WeatherDisplay:10.37,2013-07-12 17:46:00,
2013-07-12 13:51:00,78.5,68.3,21.83,NNE,22,0.0,0.4,71,0.00,CLR,,0.00,WeatherDisplay:10.37,2013-07-12 17:51:00,
2013-07-12 13:56:00,78.8,68.6,21.83,West,274,1.2,0.0,71,0.00,CLR,,0.00,WeatherDisplay:10.37,2013-07-12 17:56:00,
2013-07-12 14:01:00,79.4,68.8,21.83,North,360,0.0,0.0,70,0.00,CLR,,0.00,WeatherDisplay:10.37,2013-07-12 18:01:00,
2013-07-12 14:06:00,79.6,68.1,21.83,West,279,0.0,0.0,68,0.00,CLR,,0.00,WeatherDisplay:10.37,2013-07-12 18:06:00,
2013-07-12 14:11:00,79.4,68.3,21.83,NNW,344,0.0,0.0,69,0.00,CLR,,0.00,WeatherDisplay:10.37,2013-07-12 18:11:00,
2013-07-12 14:17:00,80.1,68.2,21.83,NNE,14,0.0,0.0,67,0.00,CLR,,0.00,WeatherDisplay:10.37,2013-07-12 18:17:00,
2013-07-12 14:22:00,80.7,67.8,21.83,North,360,3.5,0.0,65,0.00,CLR,,0.00,WeatherDisplay:10.37,2013-07-12 18:22:00,
2013-07-12 14:27:00,80.1,68.2,21.83,North,9,0.0,0.0,67,0.00,CLR,,0.00,WeatherDisplay:10.37,2013-07-12 18:27:00,
2013-07-12 14:32:00,80.3,68.3,21.83,NE,34,0.0,0.6,67,0.00,CLR,,0.00,WeatherDisplay:10.37,2013-07-12 18:32:00,
2013-07-12 14:38:00,80.9,68.5,21.83,WSW,247,1.2,1.2,66,0.00,CLR,,0.00,WeatherDisplay:10.37,2013-07-12 18:38:00,
2013-07-12 14:43:00,80.9,70.2,21.83,NW,311,0.0,0.0,70,0.01,RA,,0.01,WeatherDisplay:10.37,2013-07-12 18:43:00,
2013-07-12 14:48:00,79.2,69.4,21.83,North,360,0.0,0.0,72,0.04,RA,,0.04,WeatherDisplay:10.37,2013-07-12 18:48:00,
2013-07-12 14:53:00,76.6,68.8,21.83,NE,40,0.0,0.0,77,0.06,RA,,0.06,WeatherDisplay:10.37,2013-07-12 18:53:00,
2013-07-12 14:58:00,74.7,69.2,21.83,NE,40,0.0,0.0,83,0.06,RA,,0.06,WeatherDisplay:10.37,2013-07-12 18:58:00,
2013-07-12 15:04:00,73.9,69.8,21.83,NE,40,1.2,0.0,87,0.06,CLR,,0.06,WeatherDisplay:10.37,2013-07-12 19:04:00,
2013-07-12 15:09:00,72.8,68.7,21.83,NE,36,4.6,4.6,87,0.07,RA,,0.08,WeatherDisplay:10.37,2013-07-12 19:09:00,
2013-07-12 15:14:00,71.6,67.9,21.83,NE,38,11.5,11.5,88,0.09,RA,,0.09,WeatherDisplay:10.37,2013-07-12 19:14:00,
2013-07-12 15:19:00,70.2,66.5,21.83,NE,35,20.7,20.7,88,0.14,RA,,0.16,WeatherDisplay:10.37,2013-07-12 19:19:00,
2013-07-12 15:25:00,68.5,65.4,21.83,NNE,14,11.5,11.5,90,0.32,RA,,0.32,WeatherDisplay:10.37,2013-07-12 19:25:00,
2013-07-12 15:30:00,67.2,64.5,21.83,ENE,69,10.4,10.4,91,0.44,RA,,0.44,WeatherDisplay:10.37,2013-07-12 19:30:00,
2013-07-12 15:36:00,66.6,64.2,21.83,NNE,29,9.2,9.2,92,0.47,RA,,0.47,WeatherDisplay:10.37,2013-07-12 19:36:00,
2013-07-12 15:41:00,66.3,64.2,21.83,NNE,30,1.2,1.2,93,0.49,RA,,0.49,WeatherDisplay:10.37,2013-07-12 19:41:00,
2013-07-12 15:46:00,66.2,64.4,21.83,NNE,26,0.0,0.0,94,0.48,RA,,0.51,WeatherDisplay:10.37,2013-07-12 19:46:00,
2013-07-12 15:51:00,66.1,64.3,21.83,NNE,33,2.3,0.0,94,0.47,RA,,0.53,WeatherDisplay:10.37,2013-07-12 19:51:00,
2013-07-12 15:56:00,65.8,64.0,21.83,ENE,60,2.3,0.0,94,0.47,RA,,0.53,WeatherDisplay:10.37,2013-07-12 19:56:00,
2013-07-12 16:01:00,65.7,63.9,21.83,NE,34,1.2,0.0,94,0.48,RA,,0.54,WeatherDisplay:10.37,2013-07-12 20:01:00,
2013-07-12 16:06:00,65.6,64.1,21.83,SW,231,0.0,0.0,95,0.49,RA,,0.55,WeatherDisplay:10.37,2013-07-12 20:06:00,
2013-07-12 16:11:00,65.5,64.0,21.83,NNE,15,0.0,0.0,95,0.47,RA,,0.55,WeatherDisplay:10.37,2013-07-12 20:11:00,
2013-07-12 16:17:00,65.5,64.0,21.83,NE,41,1.0,1.0,95,0.47,CLR,,0.55,WeatherDisplay:10.37,2013-07-12 20:17:00,
2013-07-12 16:22:00,65.6,64.1,21.83,NNE,30,0.0,0.0,95,0.34,CLR,,0.55,WeatherDisplay:10.37,2013-07-12 20:22:00,
2013-07-12 16:29:00,65.7,64.2,21.83,NNE,28,2.3,2.3,95,0.13,CLR,,0.55,WeatherDisplay:10.37,2013-07-12 20:29:00,
2013-07-12 16:34:00,65.9,64.4,21.83,NE,49,0.0,0.0,95,0.08,CLR,,0.55,WeatherDisplay:10.37,2013-07-12 20:34:00,
2013-07-12 16:39:00,66.1,64.6,21.83,ENE,68,0.0,0.0,95,0.07,CLR,,0.55,WeatherDisplay:10.37,2013-07-12 20:39:00,
2013-07-12 16:44:00,66.4,65.2,21.83,NNE,26,0.0,0.0,96,0.04,CLR,,0.55,WeatherDisplay:10.37,2013-07-12 20:44:00,
2013-07-12 16:50:00,66.5,65.3,21.83,NNW,348,0.0,0.0,96,0.03,CLR,,0.55,WeatherDisplay:10.37,2013-07-12 20:50:00,
2013-07-12 16:55:00,66.7,65.5,21.83,North,355,0.0,0.0,96,0.02,CLR,,0.55,WeatherDisplay:10.37,2013-07-12 20:55:00,
2013-07-12 17:00:00,66.9,65.7,21.83,NW,323,0.0,0.0,96,0.01,CLR,,0.55,WeatherDisplay:10.37,2013-07-12 21:00:00,
2013-07-12 17:06:00,67.0,65.8,21.83,NNW,336,0.0,0.0,96,0.00,CLR,,0.55,WeatherDisplay:10.37,2013-07-12 21:06:00,
2013-07-12 17:12:00,67.1,65.6,21.83,NNW,345,0.0,0.0,95,0.00,CLR,,0.55,WeatherDisplay:10.37,2013-07-12 21:12:00,
2013-07-12 17:17:00,67.2,65.7,21.83,ESE,111,1.2,0.0,95,0.00,CLR,,0.55,WeatherDisplay:10.37,2013-07-12 21:17:00,
2013-07-12 17:22:00,67.2,65.7,21.83,SE,126,0.0,0.0,95,0.00,CLR,,0.55,WeatherDisplay:10.37,2013-07-12 21:22:00,
2013-07-12 17:28:00,67.1,65.6,21.83,West,272,2.3,2.3,95,0.00,CLR,,0.55,WeatherDisplay:10.37,2013-07-12 21:28:00,
2013-07-12 17:33:00,67.2,65.7,21.83,North,360,1.2,1.2,95,0.00,CLR,,0.55,WeatherDisplay:10.37,2013-07-12 21:33:00,
2013-07-12 17:38:00,67.1,65.6,21.83,NW,304,0.0,0.1,95,0.00,CLR,,0.55,WeatherDisplay:10.37,2013-07-12 21:38:00,
2013-07-12 17:43:00,67.0,65.5,21.83,NE,34,3.5,3.5,95,0.00,CLR,,0.55,WeatherDisplay:10.37,2013-07-12 21:43:00,
2013-07-12 17:48:00,66.9,65.4,21.83,WSW,242,0.0,0.0,95,0.00,CLR,,0.55,WeatherDisplay:10.37,2013-07-12 21:48:00,
2013-07-12 17:54:00,66.8,65.0,21.83,West,279,0.0,0.0,94,0.00,CLR,,0.55,WeatherDisplay:10.37,2013-07-12 21:54:00,
2013-07-12 17:59:00,66.7,64.9,21.83,SW,227,0.0,0.0,94,0.01,RA,,0.56,WeatherDisplay:10.37,2013-07-12 21:59:00,
2013-07-12 18:04:00,66.6,64.8,21.83,SW,227,0.0,0.0,94,0.01,RA,,0.56,WeatherDisplay:10.37,2013-07-12 22:04:00,
2013-07-12 18:09:00,66.5,65.0,21.83,NNW,331,0.0,0.0,95,0.01,,,0.56,WeatherDisplay:10.37,2013-07-12 22:09:00,
2013-07-12 18:14:00,66.4,64.9,21.83,NNW,344,0.0,0.0,95,0.01,CLR,,0.56,WeatherDisplay:10.37,2013-07-12 22:14:00,
2013-07-12 18:19:00,66.4,64.9,21.83,NE,51,0.0,0.1,95,0.01,CLR,,0.56,WeatherDisplay:10.37,2013-07-12 22:19:00,
2013-07-12 18:25:00,66.3,64.8,21.83,NE,51,0.0,0.0,95,0.01,CLR,,0.56,WeatherDisplay:10.37,2013-07-12 22:25:00,
2013-07-12 18:30:00,66.3,64.8,21.83,NE,51,0.0,0.0,95,0.01,CLR,,0.56,WeatherDisplay:10.37,2013-07-12 22:30:00,
2013-07-12 18:35:00,66.3,64.8,21.83,East,84,1.2,1.2,95,0.01,CLR,,0.56,WeatherDisplay:10.37,2013-07-12 22:35:00,
2013-07-12 18:40:00,66.1,64.3,21.83,NW,315,0.0,0.0,94,0.01,CLR,,0.56,WeatherDisplay:10.37,2013-07-12 22:40:00,
2013-07-12 18:45:00,66.1,64.3,21.83,NW,323,1.2,0.0,94,0.01,CLR,,0.56,WeatherDisplay:10.37,2013-07-12 22:45:00,
2013-07-12 18:51:00,66.0,64.2,21.83,WNW,300,0.0,0.0,94,0.01,CLR,,0.56,WeatherDisplay:10.37,2013-07-12 22:51:00,
2013-07-12 18:56:00,66.0,63.9,21.83,NW,309,0.0,0.0,93,0.01,CLR,,0.56,WeatherDisplay:10.37,2013-07-12 22:56:00,
2013-07-12 19:01:00,65.9,63.8,21.83,North,9,0.0,0.0,93,0.00,CLR,,0.56,WeatherDisplay:10.37,2013-07-12 23:01:00,
2013-07-12 19:06:00,65.9,63.8,21.83,NW,316,0.0,0.0,93,0.00,CLR,,0.56,WeatherDisplay:10.37,2013-07-12 23:06:00,
2013-07-12 19:12:00,65.9,63.8,21.83,NNE,13,0.0,0.0,93,0.00,CLR,,0.56,WeatherDisplay:10.37,2013-07-12 23:12:00,
2013-07-12 19:17:00,65.9,63.8,21.83,NNE,15,0.0,0.0,93,0.00,CLR,,0.56,WeatherDisplay:10.37,2013-07-12 23:17:00,
2013-07-12 19:22:00,65.9,63.8,21.83,NNE,22,2.3,2.3,93,0.00,CLR,,0.56,WeatherDisplay:10.37,2013-07-12 23:22:00,
2013-07-12 19:27:00,65.9,63.8,21.83,NNE,22,0.0,0.0,93,0.00,CLR,,0.56,WeatherDisplay:10.37,2013-07-12 23:27:00,
2013-07-12 19:32:00,66.0,63.9,21.83,NNE,22,0.0,0.0,93,0.00,CLR,,0.56,WeatherDisplay:10.37,2013-07-12 23:32:00,
2013-07-12 19:38:00,66.0,63.9,21.83,NNE,22,0.0,0.0,93,0.00,CLR,,0.56,WeatherDisplay:10.37,2013-07-12 23:38:00,
2013-07-12 19:43:00,66.0,63.9,21.83,NNE,22,0.0,0.0,93,0.00,CLR,,0.56,WeatherDisplay:10.37,2013-07-12 23:43:00,
2013-07-12 19:48:00,66.1,64.0,21.83,NNE,22,0.0,0.0,93,0.00,CLR,,0.56,WeatherDisplay:10.37,2013-07-12 23:48:00,
2013-07-12 19:53:00,66.3,64.5,21.83,NNE,22,0.0,0.0,94,0.00,CLR,,0.56,WeatherDisplay:10.37,2013-07-12 23:53:00,
2013-07-12 19:58:00,66.4,64.6,21.83,NNE,22,0.0,0.0,94,0.00,CLR,,0.56,WeatherDisplay:10.37,2013-07-12 23:58:00,
2013-07-12 20:03:00,66.3,64.2,21.83,NNE,22,0.0,0.0,93,0.00,CLR,,0.56,WeatherDisplay:10.37,2013-07-13 00:03:00,
2013-07-12 20:09:00,66.2,64.1,21.83,NNE,22,0.0,0.0,93,0.00,CLR,,0.56,WeatherDisplay:10.37,2013-07-13 00:09:00,
2013-07-12 20:14:00,66.2,64.1,21.83,NNE,22,0.0,0.0,93,0.00,CLR,,0.56,WeatherDisplay:10.37,2013-07-13 00:14:00,
2013-07-12 20:19:00,66.1,64.0,21.83,NNE,22,0.0,0.0,93,0.00,CLR,,0.56,WeatherDisplay:10.37,2013-07-13 00:19:00,
2013-07-12 20:24:00,66.0,63.9,21.83,NNE,22,0.0,0.0,93,0.00,CLR,,0.56,WeatherDisplay:10.37,2013-07-13 00:24:00,
2013-07-12 20:29:00,66.0,64.2,21.83,NNE,22,0.0,0.0,94,0.00,CLR,,0.56,WeatherDisplay:10.37,2013-07-13 00:29:00,
2013-07-12 20:35:00,65.8,64.0,21.83,NNE,22,0.0,0.0,94,0.00,CLR,,0.56,WeatherDisplay:10.37,2013-07-13 00:35:00,
2013-07-12 20:40:00,65.6,63.8,21.83,NNE,22,1.0,1.0,94,0.00,CLR,,0.56,WeatherDisplay:10.37,2013-07-13 00:40:00,
2013-07-12 20:46:00,65.5,63.7,21.83,NNE,22,0.0,0.0,94,0.00,CLR,,0.56,WeatherDisplay:10.37,2013-07-13 00:46:00,
2013-07-12 20:51:00,65.5,64.0,21.83,NNE,22,0.0,0.0,95,0.00,CLR,,0.56,WeatherDisplay:10.37,2013-07-13 00:51:00,
2013-07-12 20:56:00,65.4,63.9,21.83,NNE,22,0.0,0.0,95,0.00,CLR,,0.56,WeatherDisplay:10.37,2013-07-13 00:56:00,
2013-07-12 21:01:00,65.4,63.9,21.83,NNE,22,0.0,0.0,95,0.00,CLR,,0.56,WeatherDisplay:10.37,2013-07-13 01:01:00,
2013-07-12 21:06:00,65.2,63.7,21.83,NNE,22,0.0,0.0,95,0.00,CLR,,0.56,WeatherDisplay:10.37,2013-07-13 01:06:00,
2013-07-12 21:12:00,64.9,63.4,21.83,NNE,22,0.0,0.0,95,0.00,CLR,,0.56,WeatherDisplay:10.37,2013-07-13 01:12:00,
2013-07-12 21:17:00,64.7,63.2,21.83,NNE,23,0.0,0.0,95,0.00,CLR,,0.56,WeatherDisplay:10.37,2013-07-13 01:17:00,
2013-07-12 21:23:00,64.6,63.1,21.83,NNE,23,0.0,0.0,95,0.00,CLR,,0.56,WeatherDisplay:10.37,2013-07-13 01:23:00,
2013-07-12 21:28:00,64.5,63.0,21.83,NNE,22,0.0,0.0,95,0.00,CLR,,0.56,WeatherDisplay:10.37,2013-07-13 01:28:00,
2013-07-12 21:33:00,64.4,62.9,21.83,NNE,23,0.0,0.0,95,0.00,CLR,,0.56,WeatherDisplay:10.37,2013-07-13 01:33:00,
2013-07-12 21:38:00,64.4,62.9,21.83,NNE,22,0.0,0.0,95,0.00,CLR,,0.56,WeatherDisplay:10.37,2013-07-13 01:38:00,
2013-07-12 21:43:00,64.3,62.8,21.83,NNE,22,0.0,0.0,95,0.00,CLR,,0.56,WeatherDisplay:10.37,2013-07-13 01:43:00,
2013-07-12 21:48:00,64.3,62.8,21.83,NNE,22,0.0,0.0,95,0.00,CLR,,0.56,WeatherDisplay:10.37,2013-07-13 01:48:00,
2013-07-12 21:53:00,64.3,63.1,21.83,NNE,22,0.0,0.0,96,0.00,CLR,,0.56,WeatherDisplay:10.37,2013-07-13 01:53:00,
2013-07-12 21:58:00,64.2,63.0,21.83,NNE,22,0.0,0.0,96,0.00,CLR,,0.56,WeatherDisplay:10.37,2013-07-13 01:58:00,
2013-07-12 22:04:00,64.2,63.0,21.83,NNE,23,0.0,0.0,96,0.00,CLR,,0.56,WeatherDisplay:10.37,2013-07-13 02:04:00,
2013-07-12 22:09:00,64.1,62.6,21.83,NNE,23,0.0,0.0,95,0.00,CLR,,0.56,WeatherDisplay:10.37,2013-07-13 02:09:00,
2013-07-12 22:14:00,64.0,62.5,21.83,NNE,22,0.0,0.0,95,0.00,CLR,,0.56,WeatherDisplay:10.37,2013-07-13 02:14:00,
2013-07-12 22:19:00,64.0,62.8,21.83,NNE,23,0.0,0.0,96,0.00,CLR,,0.56,WeatherDisplay:10.37,2013-07-13 02:19:00,
2013-07-12 22:24:00,64.0,62.8,21.83,NNE,23,0.0,0.0,96,0.00,CLR,,0.56,WeatherDisplay:10.37,2013-07-13 02:24:00,
2013-07-12 22:30:00,64.0,62.8,21.83,NNE,23,0.0,0.0,96,0.00,CLR,,0.56,WeatherDisplay:10.37,2013-07-13 02:30:00,
2013-07-12 22:35:00,64.1,62.9,21.83,NNE,22,1.2,1.2,96,0.00,CLR,,0.56,WeatherDisplay:10.37,2013-07-13 02:35:00,
2013-07-12 22:40:00,64.1,62.9,21.83,NNE,23,0.0,0.0,96,0.00,CLR,,0.56,WeatherDisplay:10.37,2013-07-13 02:40:00,
2013-07-12 22:45:00,64.1,62.9,21.83,NNE,23,0.0,0.0,96,0.00,CLR,,0.56,WeatherDisplay:10.37,2013-07-13 02:45:00,
2013-07-12 22:51:00,64.2,63.0,21.83,NNE,23,0.0,0.0,96,0.00,CLR,,0.56,WeatherDisplay:10.37,2013-07-13 02:51:00,
2013-07-12 22:56:00,64.3,63.1,21.83,NNE,23,0.0,0.0,96,0.00,CLR,,0.56,WeatherDisplay:10.37,2013-07-13 02:56:00,
2013-07-12 23:01:00,64.3,63.1,21.83,NNE,15,2.3,0.0,96,0.00,CLR,,0.56,WeatherDisplay:10.37,2013-07-13 03:01:00,
2013-07-12 23:06:00,64.3,63.1,21.83,NNE,14,0.0,0.0,96,0.00,CLR,,0.56,WeatherDisplay:10.37,2013-07-13 03:06:00,
2013-07-12 23:11:00,64.3,63.1,21.83,NE,52,0.0,0.0,96,0.00,CLR,,0.56,WeatherDisplay:10.37,2013-07-13 03:11:00,
2013-07-12 23:16:00,64.3,63.1,21.83,North,360,1.2,1.2,96,0.00,CLR,,0.56,WeatherDisplay:10.37,2013-07-13 03:16:00,
2013-07-12 23:21:00,64.3,63.1,21.83,NNE,33,3.5,3.5,96,0.00,CLR,,0.56,WeatherDisplay:10.37,2013-07-13 03:21:00,
2013-07-12 23:27:00,64.3,63.1,21.83,NNE,28,0.0,0.0,96,0.00,CLR,,0.56,WeatherDisplay:10.37,2013-07-13 03:27:00,
2013-07-12 23:32:00,64.2,63.0,21.83,NE,49,3.5,3.5,96,0.00,CLR,,0.56,WeatherDisplay:10.37,2013-07-13 03:32:00,
2013-07-12 23:37:00,64.2,63.0,21.83,NNE,24,0.0,0.0,96,0.00,CLR,,0.56,WeatherDisplay:10.37,2013-07-13 03:37:00,
2013-07-12 23:43:00,64.2,63.0,21.83,NE,41,0.0,0.0,96,0.00,CLR,,0.56,WeatherDisplay:10.37,2013-07-13 03:43:00,
2013-07-12 23:48:00,64.2,63.0,21.83,NE,41,0.0,0.0,96,0.00,CLR,,0.56,WeatherDisplay:10.37,2013-07-13 03:48:00,
2013-07-12 23:53:00,64.2,63.0,21.83,NE,39,0.0,0.0,96,0.00,CLR,,0.56,WeatherDisplay:10.37,2013-07-13 03:53:00,
2013-07-12 23:58:00,64.2,63.0,21.83,NNW,340,0.0,0.0,96,0.00,CLR,,0.56,WeatherDisplay:10.37,2013-07-13 03:58:00,